Zurück zum Katalog

CZ-2C R/B

AktivPO
NORAD 54039·ROCKET BODY·🇨🇳 China

Gestartet Oct 12, 2022 von Taiyuan Satellite Launch Center

Loading…

Nächste Überflüge (nächste 24 Stunden)

TLE

AktuellSource: Space-Track

Epoche: Sep 14, 2026, 23:27 UTC

1 54039U 22132E   26257.97764319  .00114637  00000-0  49763-3 0  9993
2 54039  97.2873 269.8142 0012865  99.1137 261.1589 15.84405580220100

Verfolge CZ-2C R/B in Echtzeit mit AllMySat

Download on the App Store